Погода в Бийка

Россия / Республика Алтай     51°55′50″N   87°39′21″E
темп.,
°C
ветер,
м/с
пор.,
м/с
влажн.,
%
обл.,
%
осадки,
мм/ч
давл.,
гПа
погр.,
м
20 января, чт
чт2001:00−9ю0197100 0.9 102538
04:00−9ссз1197100 0.7 102551
07:00−9сз1197100 1.4 102673
10:00−9сз1196100 1.2 1028114
13:00−8сз1292100 2.8 1030387
16:00−9сз1194100 1.4 1032267
19:00−10сз1197100 2.1 103450
22:00−15юв119895 0.3 10369
21 января, пт
пт2101:00−17юв219672 0.3 103712
04:00−18юв219331 0.0 103614
07:00−19юв21927 0.0 103615
10:00−18юв21905 0.0 103424
13:00−10ссз11785 0.0 1029297
16:00−10с229178 0.0 1028206
19:00−16ююв219874 0.0 103010
22:00−18юв219572 0.0 103112
22 января, сб
сб2201:00−18юв219332 0.0 103214
04:00−19юв21925 0.0 103215
07:00−20юв21925 0.0 103415
10:00−18ююв21905 0.0 103526
13:00−10ссз11785 0.0 1032264
16:00−8с11848 0.0 1032181
19:00−17юв21978 0.0 103611
22:00−17юв21945 0.0 103715
23 января, вс
вс2301:00−18юв21915 0.0 103817
04:00−18юв22895 0.0 103719
07:00−18юв22895 0.0 103819
10:00−16юв228633 0.0 103832
13:00−7ссз01705 0.0 1034268
16:00−7ссз11855 0.0 1033151
19:00−15юв219620 0.0 103711
22:00−16юв22915 0.0 103717
24 января, пн
пн2401:00−17юв22874 0.0 103819
04:00−18юв22862 0.0 103719
07:00−19юв22862 0.0 103818
10:00−18ююв21831 0.0 103729
13:00−9ссз11691 0.0 1033252
16:00−8с11824 0.0 1031160
19:00−17юв21968 0.0 103410
22:00−18юв21915 0.0 103516